Location: Fontevrault
(47.1823°N, 0.0493°E)
Time: 18:22:25
(UTC+00:00)

Cosmos 1725 Rocket - Pass Details

Date: 24 October 2021
Orbit: 961 x 991 km, 82.9° (Epoch: 27 November)

Event Time Altitude Azimuth Distance (km) Brightness Sun altitude
Rises 05:43:27 0° 359° (N) 3,660 6.9 -8.8°
Reaches altitude 10° 05:46:29 10° 13° (NNE) 2,708 6.4 -8.2°
Maximum altitude 05:51:26 25° 66° (ENE) 1,862 6.3 -7.4°
Drops below altitude 10° 05:56:22 10° 120° (ESE) 2,698 7.7 -6.6°
Sets 05:59:22 0° 133° (SE) 3,643 8.1 -6.1°
